WetterOnline ( http://www.wetteronline.de )

Wetter aktuell Plauen

Aktuelles Wetter: Plauen (389m)

6-stündlich | Neueste Meldungen
Ortszeit Temperatur Wetter
Fr, 25.05. 8:00 13.9° C Regen
Fr, 25.05. 2:00 13.2° C Sprühregen
Do, 24.05. 20:00 14.3° C leichter Regen
Do, 24.05. 14:00 14.5° C Regen
Do, 24.05. 8:00 14.3° C bedeckt
Do, 24.05. 2:00 13.8° C bedeckt
Mi, 23.05. 20:00 15.2° C leichter Regen
Mi, 23.05. 14:00 21.5° C bewölkt
Ortszeit Temperatur Wetter
Fr, 25.05. 9:00 14.6° C bewölkt
Fr, 25.05. 8:30 14.4° C bedeckt
Fr, 25.05. 8:20 14.4° C bedeckt
Fr, 25.05. 8:10 14.4° C bedeckt
Fr, 25.05. 8:00 13.9° C Regen
Fr, 25.05. 7:50 13.9° C bewölkt
Fr, 25.05. 7:30 13.6° C Sprühregen
Fr, 25.05. 7:00 13.2° C leichter Regen
Fr, 25.05. 6:30 13.2° C Sprühregen
Fr, 25.05. 6:00 13.0° C bedeckt
Fr, 25.05. 5:30 13.0° C bedeckt
Ortszeit Relative Feuchte Sichtweite
Fr, 25.05. 8:00 100% 3.5 km
Fr, 25.05. 2:00 100% 6 km
Do, 24.05. 20:00 97% 6 km
Do, 24.05. 14:00 100% 0.5 km
Do, 24.05. 8:00 97% 7 km
Do, 24.05. 2:00 100% 2.4 km
Mi, 23.05. 20:00 94% 6 km
Mi, 23.05. 14:00 57% 22 km
Ortszeit Relative Feuchte Sichtweite
Fr, 25.05. 9:00 97% 4.3 km
Fr, 25.05. 8:30 99% 4.4 km
Fr, 25.05. 8:20 99% -
Fr, 25.05. 8:10 100% -
Fr, 25.05. 8:00 100% 3.5 km
Fr, 25.05. 7:50 100% -
Fr, 25.05. 7:30 100% 3.7 km
Fr, 25.05. 7:00 100% 2.9 km
Fr, 25.05. 6:30 100% 2.0 km
Fr, 25.05. 6:00 100% 2.1 km
Fr, 25.05. 5:30 100% 2.0 km
Ortszeit Niederschlagsmenge Niederschlagsart
Fr, 25.05. 8:00 2 l/m2 in 12 Std. Regen
Fr, 25.05. 2:00 1 l/m2 in 6 Std. Regen
Do, 24.05. 20:00 89 l/m2 in 12 Std. Regenschauer
Do, 24.05. 14:00 41 l/m2 in 6 Std. Regen
Do, 24.05. 8:00 1 l/m2 in 12 Std. Regen
Do, 24.05. 2:00 0.3 l/m2 in 6 Std. Regen
Mi, 23.05. 20:00 2 l/m2 in 12 Std. Regen
Mi, 23.05. 14:00 0.0 l/m2 in 6 Std. -
Ortszeit Niederschlagsmenge Niederschlagsart
Fr, 25.05. 9:00 0.1 l/m2 in 1 Std. Regen
Fr, 25.05. 8:30 0.1 l/m2 in 1 Std. Schneeregen
Fr, 25.05. 8:20 keine Meldung -
Fr, 25.05. 8:10 keine Meldung -
Fr, 25.05. 8:00 0.2 l/m2 in 1 Std. Regen
Fr, 25.05. 7:50 keine Meldung -
Fr, 25.05. 7:30 0.1 l/m2 in 1 Std. -
Fr, 25.05. 7:00 0.1 l/m2 in 1 Std. Regen
Fr, 25.05. 6:30 0.1 l/m2 in 1 Std. -
Fr, 25.05. 6:00 0.1 l/m2 in 1 Std. Regen
Fr, 25.05. 5:30 0.1 l/m2 in 1 Std. Schneeregen
Ortszeit Stärke Spitze Richtung
km/h Bft. km/h Grad Sektor
Fr, 25.05. 8:00 0 0 7 - -
Fr, 25.05. 2:00 4 1 11 360° N
Do, 24.05. 20:00 4 1 25 60° NO
Do, 24.05. 14:00 9 2 19 50° NO
Do, 24.05. 8:00 6 1 15 30° NO
Do, 24.05. 2:00 4 1 11 90° O
Mi, 23.05. 20:00 6 1 43 10° N
Mi, 23.05. 14:00 11 2 32 50° NO
Ortszeit Stärke Spitze Richtung
km/h Bft. km/h Grad Sektor
Fr, 25.05. 9:00 4 1 4 10° N
Fr, 25.05. 8:30 0 0 4 - -
Fr, 25.05. 8:20 0 0 - 70° O
Fr, 25.05. 8:10 2 1 - 340° N
Fr, 25.05. 8:00 0 0 4 - -
Fr, 25.05. 7:50 2 1 - 140° SO
Fr, 25.05. 7:30 0 0 4 - -
Fr, 25.05. 7:00 4 1 7 260° W
Fr, 25.05. 6:30 4 1 7 40° NO
Fr, 25.05. 6:00 4 1 7 190° S
Fr, 25.05. 5:30 4 1 4 180° S
Ortszeit Untergrenze Bedeckung Gattung
total tief tief mittel hoch
Fr, 25.05. 8:00 30 m 7/8 6/8 - - -
Fr, 25.05. 2:00 1500 m 7/8 7/8 - - -
Do, 24.05. 20:00 1320 m 8/8 8/8 - - -
Do, 24.05. 14:00 - 8/8 - - - -
Do, 24.05. 8:00 1440 m 8/8 8/8 - - -
Do, 24.05. 2:00 2400 m 8/8 8/8 - - -
Mi, 23.05. 20:00 2400 m 8/8 8/8 - - -
Mi, 23.05. 14:00 1380 m 7/8 7/8 - - -
Ortszeit Bedeckungsgrad in Achtel und Wolkenuntergrenze
Fr, 25.05. 9:00 4(90m) 7(2100m)
Fr, 25.05. 8:30 6(60m) 8(2700m) 8(3900m)
Fr, 25.05. 8:20 6(60m) 8(2700m) 8(3900m)
Fr, 25.05. 8:10 5(60m) 8(2700m)
Fr, 25.05. 8:00 6(30m) 7(3000m)
Fr, 25.05. 7:50 6(30m) 7(3000m)
Fr, 25.05. 7:30 7(60m) 8(2700m)
Fr, 25.05. 7:00 -
Fr, 25.05. 6:30 -
Fr, 25.05. 6:00 5(1500m) 8(2400m)
Fr, 25.05. 5:30 8(1500m)
Ortszeit Luftdruck NN (hPa) Tendenz (hPa in 3 Std.)
Fr, 25.05. 8:00 1020 + 0,2
Fr, 25.05. 2:00 1020 + 0,1
Do, 24.05. 20:00 1019 - 0,5
Do, 24.05. 14:00 1020 - 0,6
Do, 24.05. 8:00 1020 + 0,4
Do, 24.05. 2:00 1020 + 0,3
Mi, 23.05. 20:00 1020 + 0,8
Mi, 23.05. 14:00 1017 - 0,3
Ortszeit Luftdruck NN (hPa) Tendenz (hPa in 3 Std.)
Fr, 25.05. 9:00 1020 + 0,4
Fr, 25.05. 8:30 1020 + 0,5
Fr, 25.05. 8:20 1020 keine Meldung
Fr, 25.05. 8:10 1020 keine Meldung
Fr, 25.05. 8:00 1020 + 0,2
Fr, 25.05. 7:50 1020 keine Meldung
Fr, 25.05. 7:30 1020 0,0
Fr, 25.05. 7:00 1020 - 0,1
Fr, 25.05. 6:30 1020 - 0,3
Fr, 25.05. 6:00 1020 - 0,4
Fr, 25.05. 5:30 1019 - 0,5
Ortszeit Schneehöhe (cm)
Fr, 25.05. 8:00 -
Fr, 25.05. 2:00 -
Do, 24.05. 20:00 -
Do, 24.05. 14:00 -
Do, 24.05. 8:00 -
Do, 24.05. 2:00 -
Mi, 23.05. 20:00 -
Mi, 23.05. 14:00 -
Ortszeit Schneehöhe (cm)
Fr, 25.05. 9:00 -
Fr, 25.05. 8:30 -
Fr, 25.05. 8:20 -
Fr, 25.05. 8:10 -
Fr, 25.05. 8:00 -
Fr, 25.05. 7:50 -
Fr, 25.05. 7:30 -
Fr, 25.05. 7:00 -
Fr, 25.05. 6:30 -
Fr, 25.05. 6:00 -
Fr, 25.05. 5:30 -
Link zu dieser Seite / Seite empfehlen

Das Wetter in ...